カタログに戻る

STARLINK-3544

運用中通信VLEO
NORAD 51803·PAYLOAD·🇺🇸 United States

打ち上げ Feb 25, 2022 から Vandenberg Space Force Base

Loading…

次のパス (今後24時間)

TLE

最新Source: CelesTrak SupGP

元期: Sep 14, 2026, 22:06 UTC

1 51803C 22017AM  26257.92131944 -.00009908  00000+0 -29272-3 0  2573
2 51803  53.1586 204.1390 0001455  89.3989 327.5651 15.34396288    16

AllMySatでSTARLINK-3544をリアルタイム追跡

Download on the App Store